Volver al catálogo

AL-AMAL

HOPE

ActivoCienciaVLEO
NORAD 45918·PAYLOAD·🇦🇪 UAE

Lanzado Jul 19, 2020 desde Tanegashima Space Center

Loading…

Próximos Pases (próximas 24 horas)

TLE

ObsoletoSource: Space-Track

Época: Jul 19, 2020, 22:09 UTC

1 45918U 20047A   20201.92332176 +.00001484 -46927-5 +00000-0 0  9999
2 45918 030.3470 309.5833 0007500 293.9000 179.9000 16.12219793000009

Sigue AL-AMAL en tiempo real con AllMySat

Download on the App Store